Location: Bailleul
(50.3375°N, 2.8513°E)
Time: 16:43:36
(UTC+00:00)

ATLAS 3B R/B - Pass Details

Date: 19 April 2021
Orbit: 1006 x 1189 km, 63.8° (Epoch: 21 April)

Event Time Altitude Azimuth Distance (km) Brightness Sun altitude
Rises 19:51:10 0° 316° (NW) 3,872 7.4 -9.7°
Reaches altitude 10° 19:53:46 10° 315° (NW) 2,939 6.5 -10.0°
Maximum altitude 20:00:43 71° 233° (SW) 1,185 3.0 -11.0°
Enters shadow 20:07:47 11° 152° (SSE) 2,988 4.5 -11.9°
